Location: Paris
(48.6709°N, 2.3750°E)
Time: 17:40:05
(UTC+02:00)

STARS - Pass Details

Date: 02 July 2022
Orbit: 620 x 637 km, 98.2° (Epoch: 06 August)

Event Time Altitude Azimuth Distance (km) Brightness Sun altitude
Rises 02:12:26 0° 359° (N) 2,936 ? -18.2°
Reaches altitude 10° 02:15:30 10° 336° (NNW) 2,019 ? -18.1°
Maximum altitude 02:17:54 15° 302° (WNW) 1,720 ? -18.1°
Drops below altitude 10° 02:20:18 10° 269° (W) 2,005 ? -18.0°
Enters shadow 02:21:47 - 255° (WSW) 2,399 ? -18.0°
